Regional Weather Roundup
Issued by NWS

Home | Current Version | Previous Version | Graphics & Text | Print | Product List | Glossary Off
Versions: 1 2 3 4 5 6 7 8 9 10 11 12 13 14 15 16 17 18 19 20 21 22 23 24 25 26 27 28 29 30 31 32 33 34 35 36 37 38 39 40 41 42 43 44 45 46 47 48 49 50

000
ASUS43 KLSX 260859
RWRMO

WEATHER SUMMARY FOR MISSOURI
NATIONAL WEATHER SERVICE SPRINGFIELD MO
400 AM CDT TUE MAY 26 2015

NOTE: "FAIR" INDICATES FEW OR NO CLOUDS BELOW 12,000 FEET WITH NO
       SIGNIFICANT WEATHER AND/OR OBSTRUCTIONS TO VISIBILITY.
       CURRENT SKY AND/OR WEATHER CONDITIONS ARE NOT AVAILABLE FOR
       CHILLICOTHE AND FARMINGTON.

MOZ001>031-035>038-043-044-053-054-261000-
...NORTHERN AND WESTERN MISSOURI...

CITY           SKY/WX    TMP DP  RH WIND       PRES   REMARKS
KANSAS CTY INT RAIN      60  59  96 NW9       29.77F FOG
KANSAS C DTWN  RAIN      62  59  90 NW9       29.77F FOG
LEE`S SUMMIT   HVY RAIN  61  60  97 NW6       29.78R FOG
ST JOSEPH      RAIN      61  60  97 W6        29.78F
KIRKSVILLE     LGT RAIN  68  67  96 SE8       29.76F

$$
MOZ066>068-077>081-088>096-101>105-261000-
...SOUTHWEST MISSOURI...

CITY           SKY/WX    TMP DP  RH WIND       PRES   REMARKS
SPRINGFIELD    CLOUDY    62  59  90 SW7       29.85S
JOPLIN         CLOUDY    63  59  87 SW13      29.84S

$$
MOZ032>034-039>042-045>050-055>058-069>072-261000-
...CENTRAL MISSOURI...

CITY           SKY/WX    TMP DP  RH WIND       PRES   REMARKS
COLUMBIA       LGT RAIN  68  64  87 SE10      29.78F
JEFFERSON CITY LGT RAIN  68  64  87 SE6       29.78F
ROLLA          CLOUDY    64  62  93 SE9       29.80F
SEDALIA        CLOUDY    68  63  84 S13       29.78F
OSAGE BEACH    CLOUDY    66  61  82 S8G20     29.83R

$$
MOZ051-052-059>065-261000-
...EAST CENTRAL MISSOURI...

CITY           SKY/WX    TMP DP  RH WIND       PRES   REMARKS
ST LOUIS INTL  CLOUDY    74  67  78 S15       29.87F
SPIRIT OF STL  MOCLDY    73  66  78 S7        29.84F
ST CHARLES     CLOUDY    73  68  84 SE13G22   29.85F

$$
MOZ072>076-082>087-097>100-106>115-261000-
...SOUTH CENTRAL AND SOUTHEAST MISSOURI...

CITY           SKY/WX    TMP DP  RH WIND       PRES   REMARKS
CAPE GIRARDEAU CLOUDY    71  68  90 SE14      29.93F
FARMINGTON     CLOUDY    64  63  94 S9        29.92F
POPLAR BLUFF   LGT RAIN  68  65  90 S6        29.88F
WEST PLAINS    CLOUDY    63  60  90 SW5       29.86R

$$


USA.gov is the U.S. government's official web portal to all federal, state and local government web resources and services.